Regional Weather Roundup
Issued by NWS

Home | Current Version | Previous Version | Graphics & Text | Print | Product List | Glossary Off
Versions: 1 2 3 4 5 6 7 8 9 10 11 12 13 14 15 16 17 18 19 20 21 22 23 24 25 26 27 28 29 30 31 32 33 34 35 36 37 38 39 40 41 42 43 44 45 46 47 48 49 50

000
ASUS43 KFSD 010710
RWRSD

WEATHER ROUNDUP FOR SOUTH DAKOTA
NATIONAL WEATHER SERVICE SIOUX FALLS SD
200 AM CDT WED APR 01 2015

NOTE: "FAIR" INDICATES FEW OR NO CLOUDS BELOW 12,000 FEET WITH NO
SIGNIFICANT WEATHER AND/OR OBSTRUCTIONS TO VISIBILITY.


SDZ001>005-009-010-012>017-010800-
NORTHWEST AND NORTH CENTRAL SOUTH DAKOTA

CITY           SKY/WX    TMP DP  RH WIND       PRES   REMARKS
BUFFALO          N/A     59  24  26 S7        29.42F
FAITH            N/A     56  24  29 S14       29.51F
MOBRIDGE       MOCLDY    52  29  41 SE6       29.50F
$$

SDZ012>016-024>037-041>051-057-063-072>074-010800-
SOUTHWEST AND SOUTH CENTRAL SOUTH DAKOTA

CITY           SKY/WX    TMP DP  RH WIND       PRES   REMARKS
RAPID CTY ARPT MOCLDY    54  23  30 SE5       29.53F
PIERRE         CLOUDY    58  26  29 SE5       29.53F
CUSTER         CLOUDY    49  15  25 W5        29.66F
ELLSWORTH AFB  CLOUDY    58  22  25 S6        29.53F
PHILIP         CLOUDY    62  20  19 N5        29.51F
PINE RIDGE     MOCLDY    61  18  18 S18G24    29.59F
SPEARFISH      FAIR      66  18  15 S15       29.55F
WINNER         FAIR      65  26  23 S21       29.60F
$$

SDZ004>011-016>023-039-040-010800-
NORTHEAST SOUTH DAKOTA

CITY           SKY/WX    TMP DP  RH WIND       PRES   REMARKS
ABERDEEN       CLOUDY    57  33  40 S17       29.58F
WATERTOWN      MOCLDY    54  32  43 S14       29.67F
BROOKINGS      PTCLDY    54  32  43 S14G20    29.71F
SISSETON         N/A     46  34  62 S13       29.65F
$$

SDZ017-020-022-023-036>040-048>070-010800-
SOUTHEAST SOUTH DAKOTA

CITY           SKY/WX    TMP DP  RH WIND       PRES   REMARKS
SIOUX FALLS    MOCLDY    59  31  34 S18G25    29.72F
HURON          CLOUDY    56  32  40 S16       29.62F
CHAMBERLAIN    MOCLDY    61  29  30 S17       29.60F
MITCHELL       CLOUDY    57  33  40 S15       29.66F
YANKTON        PTCLDY    61  32  33 S14G22    29.72F
$$

ABBREVIATIONS USED IN REMARKS
   TC - TEMPERATURE IN CELSIUS
  WCI - WIND CHILL INDEX
   HX - HEAT INDEX
  VSB - VISIBILITY




USA.gov is the U.S. government's official web portal to all federal, state and local government web resources and services.